Tracking 19638 objects as of 22-Apr-2019
HD Live streaming from Space Station
objects crossing your sky now

THORAD AGENA D DEB

Track THORAD AGENA D DEB now!
10-day predictions


NORAD ID: 42553
Int'l Code: 1970-025TK
Perigee: 1,130.2 km
Apogee: 1,326.8 km
Inclination: 100.3 °
Period: 109.9 minutes
Semi major axis: 7599 km
RCS: Unknown
Launch date: April 8, 1970
Source: United States (US)
Launch site: AIR FORCE WESTERN TEST RANGE (AFWTR)

Note: This is SATELLITE DEBRIS
aabbcc
Your satellite tracking list
Your tracking list is empty




NASA's NSSDC Master Catalog

Two Line Element Set (TLE):
1 42553U 70025TK  19111.03752381 -.00000086  00000-0 -11835-3 0  9992
2 42553 100.3312 200.6574 0129318 138.5061 222.5954 13.10464818213093
Source of the keplerian elements: AFSPC